Weather observations for the past three days for
Crescent City, Jack McNamara Field Airport
| Date | Time (pdt) | Wind (kph) | Vis. (km) | Weather | Sky Cond. | Temperature (ºC) | Relative Humidity | Wind Chill (°C) | Heat Index (°C) | Pressure | Precipitation (cm) | ||||||
|---|---|---|---|---|---|---|---|---|---|---|---|---|---|---|---|---|---|
| Air | Dwpt | 6 hour | altimeter (cm) | sea level (mb) | 1 hr | 3 hr | 6 hr | ||||||||||
| Max. | Min. | ||||||||||||||||
| 06 | 23:56 | NW 9 | 14.48 | Overcast | OVC008 | 11.7 | 10 | 89% | 76.61 | 1021.4 | |||||||
| 06 | 22:56 | N 11 | 14.48 | Overcast | OVC011 | 11.7 | 10.6 | 13.3 | 11.7 | 93% | 76.63 | 1021.7 | |||||
| 06 | 21:56 | N 9 | 16.09 | Overcast | OVC014 | 11.7 | 10 | 89% | 76.66 | 1022.0 | |||||||
| 06 | 20:56 | N 11 | 16.09 | Overcast | OVC014 | 11.7 | 10 | 89% | 76.66 | 1022.1 | |||||||
| 06 | 19:56 | N 15 | 16.09 | Overcast | OVC018 | 12.2 | 10 | 87% | 76.66 | 1021.9 | |||||||
| 06 | 18:56 | NW 11 | 16.09 | Overcast | OVC019 | 12.8 | 10.6 | 87% | 76.66 | 1022.2 | |||||||
| 06 | 17:56 | N 13 | 16.09 | Overcast | OVC020 | 12.8 | 10 | 83% | 76.71 | 1022.6 | |||||||
| 06 | 16:56 | NW 11 | 16.09 | Overcast | OVC021 | 13.3 | 10.6 | 13.9 | 12.2 | 84% | 76.71 | 1022.7 | |||||
| 06 | 15:56 | N 9 | 16.09 | Overcast | OVC015 | 12.8 | 10 | 83% | 76.71 | 1022.9 | |||||||
| 06 | 14:56 | N 13 | 16.09 | Overcast | FEW010 OVC017 | 13.3 | 10.6 | 84% | 76.73 | 1023.2 | |||||||
| 06 | 13:56 | NW 13 | 16.09 | Overcast | OVC019 | 12.8 | 10.6 | 87% | 76.73 | 1023.2 | |||||||
| 06 | 12:56 | NW 11 | 16.09 | Overcast | OVC017 | 12.8 | 10.6 | 87% | 76.73 | 1023.0 | |||||||
| 06 | 11:56 | NW 13 | 16.09 | Overcast | FEW007 OVC020 | 12.8 | 10.6 | 87% | 76.73 | 1023.1 | |||||||
| 06 | 10:56 | NW 9 | 16.09 | Overcast | SCT006 OVC019 | 12.2 | 11.1 | 12.2 | 11.1 | 93% | 76.73 | 1022.9 | |||||
| 06 | 09:56 | NW 13 | 16.09 | Overcast | BKN005 OVC021 | 12.2 | 11.1 | 93% | 76.71 | 1022.7 | |||||||
| 06 | 08:56 | NW 9 | 16.09 | Overcast | BKN005 BKN009 OVC024 | 11.7 | 11.1 | 96% | 76.68 | 1022.3 | |||||||
| 06 | 07:56 | NE 6 | 4.83 | Fog/Mist | BKN005 OVC017 | 11.1 | 10.6 | 97% | 76.66 | 1021.9 | |||||||
| 06 | 06:56 | NW 6 | 4.02 | Fog/Mist | OVC006 | 11.1 | 10.6 | 97% | 76.63 | 1021.7 | |||||||
| 06 | 05:56 | N 6 | 8.05 | Fog/Mist | OVC008 | 11.1 | 10 | 93% | 76.61 | 1021.5 | |||||||
| 06 | 04:56 | Calm | 8.05 | Fog/Mist | OVC008 | 11.1 | 10 | 12.2 | 11.1 | 93% | 76.58 | 1021.2 | |||||
| 06 | 03:56 | NW 7 | 16.09 | Overcast | BKN011 OVC021 | 11.1 | 10 | 93% | 76.56 | 1020.6 | |||||||
| 06 | 02:56 | NW 7 | 16.09 | Overcast | BKN009 OVC017 | 11.7 | 10 | 89% | 76.5 | 1020.1 | |||||||
| 06 | 01:56 | NW 6 | 16.09 | Overcast | OVC017 | 11.7 | 10 | 89% | 76.48 | 1019.8 | |||||||
| 06 | 00:56 | NW 11 | 16.09 | Overcast | OVC017 | 11.7 | 10 | 89% | 76.48 | 1019.6 | |||||||
| 05 | 23:56 | W 9 | 16.09 | Overcast | OVC017 | 12.2 | 10 | 87% | 76.43 | 1019.0 | |||||||
| 05 | 22:56 | NW 6 | 16.09 | Overcast | OVC015 | 12.2 | 10 | 13.3 | 12.2 | 87% | 76.43 | 1018.9 | |||||
| 05 | 21:56 | Calm | 16.09 | Overcast | OVC015 | 12.2 | 9.4 | 83% | 76.4 | 1018.8 | |||||||
| 05 | 20:56 | NW 7 | 16.09 | Overcast | OVC017 | 12.2 | 10 | 87% | 76.35 | 1018.1 | |||||||
| 05 | 19:56 | NW 11 | 16.09 | Overcast | OVC018 | 12.2 | 10.6 | 90% | 76.33 | 1017.5 | |||||||
| 05 | 18:56 | N 9 | 16.09 | Overcast | FEW007 OVC019 | 12.8 | 10.6 | 87% | 76.3 | 1017.3 | |||||||
| 05 | 17:56 | N 11 | 16.09 | Overcast | BKN006 OVC020 | 12.8 | 11.1 | 90% | 76.28 | 1017.0 | |||||||
| 05 | 16:56 | NW 13 | 16.09 | Overcast | BKN006 OVC021 | 13.3 | 11.1 | 15.6 | 13.3 | 87% | 76.3 | 1017.1 | |||||
| 05 | 15:56 | NW 17 | 16.09 | Overcast | FEW007 OVC022 | 13.9 | 11.7 | 87% | 76.3 | 1017.3 | |||||||
| 05 | 14:56 | NW 17 | 16.09 | Overcast | OVC024 | 15.6 | 12.2 | 80% | 76.3 | 1017.2 | |||||||
| 05 | 13:56 | NW 13 | 16.09 | Overcast | OVC024 | 15.6 | 11.1 | 75% | 76.3 | 1017.1 | |||||||
| 05 | 12:56 | W 15 | 16.09 | Overcast | OVC024 | 15 | 10.6 | 75% | 76.28 | 1017.1 | |||||||
| 05 | 11:56 | W 9 | 16.09 | Overcast | OVC024 | 14.4 | 8.9 | 70% | 76.28 | 1017.1 | |||||||
| 05 | 10:56 | NW 9 | 16.09 | Overcast | OVC024 | 13.9 | 10.6 | 14.4 | 12.2 | 81% | 76.28 | 1016.9 | |||||
| 05 | 09:56 | NW 9 | 16.09 | Overcast | OVC025 | 13.9 | 10.6 | 81% | 76.25 | 1016.6 | |||||||
| 05 | 08:56 | NW 6 | 12.87 | Overcast | OVC023 | 12.8 | 11.1 | 90% | 76.25 | 1016.6 | |||||||
| 05 | 07:56 | Calm | 16.09 | Overcast | OVC023 | 12.8 | 11.1 | 90% | 76.23 | 1016.3 | |||||||
| 05 | 06:56 | E 6 | 16.09 | Overcast | OVC023 | 12.2 | 10.6 | 90% | 76.2 | 1016.0 | |||||||
| 05 | 05:56 | Calm | 16.09 | Overcast | OVC025 | 12.2 | 11.1 | 93% | 76.2 | 1015.8 | |||||||
| 05 | 04:56 | Calm | 16.09 | Overcast | OVC027 | 12.2 | 11.1 | 12.8 | 12.2 | 93% | 76.17 | 1015.6 | |||||
| 05 | 03:56 | Calm | 16.09 | Overcast | OVC027 | 12.2 | 11.1 | 93% | 76.15 | 1015.4 | |||||||
| 05 | 02:56 | S 6 | 16.09 | Overcast | OVC029 | 12.8 | 11.1 | 90% | 76.15 | 1015.4 | |||||||
| 05 | 01:56 | SE 7 | 16.09 | Overcast | OVC031 | 12.8 | 11.1 | 90% | 76.2 | 1015.9 | |||||||
| 05 | 00:56 | S 6 | 16.09 | Overcast | OVC032 | 12.8 | 11.1 | 90% | 76.23 | 1016.2 | |||||||
| 04 | 23:56 | S 7 | 16.09 | Overcast | OVC032 | 12.8 | 11.1 | 90% | 76.23 | 1016.2 | |||||||
| 04 | 22:56 | S 7 | 16.09 | Overcast | OVC033 | 12.8 | 11.1 | 15 | 12.8 | 90% | 76.23 | 1016.2 | |||||
| 04 | 21:56 | S 7 | 16.09 | Overcast | OVC035 | 12.8 | 11.1 | 90% | 76.23 | 1016.3 | |||||||
| 04 | 20:56 | S 7 | 16.09 | Overcast | OVC036 | 12.8 | 11.1 | 90% | 76.2 | 1015.8 | |||||||
| 04 | 19:56 | S 9 | 16.09 | Overcast | OVC027 | 13.3 | 11.1 | 87% | 76.15 | 1015.2 | |||||||
| 04 | 18:56 | S 7 | 16.09 | Overcast | FEW007 OVC028 | 13.3 | 11.7 | 90% | 76.15 | 1015.3 | |||||||
| 04 | 17:56 | SW 13 | 16.09 | Overcast | OVC031 | 13.9 | 11.7 | 87% | 76.17 | 1015.6 | |||||||
| 04 | 16:56 | S 13 | 16.09 | Mostly Cloudy | FEW010 BKN033 | 14.4 | 11.7 | 15 | 12.8 | 84% | 76.17 | 1015.5 | |||||
| 04 | 15:56 | S 13 | 16.09 | Fair | CLR | 14.4 | 11.1 | 81% | 76.17 | 1015.7 | |||||||
| 04 | 14:56 | S 13 | 16.09 | Fair | CLR | 14.4 | 11.1 | 81% | 76.2 | 1016.1 | |||||||
| 04 | 13:56 | S 15 | 16.09 | Overcast | OVC029 | 14.4 | 11.1 | 81% | 76.25 | 1016.5 | |||||||
| 04 | 12:56 | S 15 | 16.09 | Overcast | OVC030 | 14.4 | 11.7 | 84% | 76.25 | 1016.7 | |||||||
| 04 | 11:56 | S 15 | 16.09 | Overcast | OVC029 | 13.3 | 10.6 | 84% | 76.25 | 1016.6 | |||||||
| 04 | 10:56 | S 13 | 16.09 | Overcast | OVC022 | 12.8 | 11.1 | 12.8 | 11.1 | 90% | 76.25 | 1016.6 | |||||
| 04 | 09:56 | S 13 | 16.09 | Overcast | OVC022 | 12.2 | 11.1 | 93% | 76.2 | 1016.1 | |||||||
| 04 | 08:56 | S 9 | 16.09 | Overcast | BKN008 OVC022 | 12.2 | 11.1 | 93% | 76.2 | 1016.1 | |||||||
| 04 | 07:56 | SE 13 | 16.09 | Overcast | FEW006 SCT010 OVC020 | 12.2 | 11.1 | 93% | 76.17 | 1015.6 | |||||||
| 04 | 06:56 | S 9 | 12.87 | Overcast | BKN009 OVC017 | 11.7 | 11.1 | 96% | 76.15 | 1015.2 | |||||||
| 04 | 05:56 | S 9 | 16.09 | Overcast | BKN010 OVC022 | 11.7 | 11.1 | 96% | 76.12 | 1014.9 | |||||||
| 04 | 04:56 | S 9 | 16.09 | Overcast | OVC014 | 11.1 | 10.6 | 11.7 | 10.6 | 97% | 76.12 | 1014.8 | |||||
| 04 | 03:56 | Calm | 9.66 | Fog/Mist | FEW015 OVC023 | 10.6 | 10.6 | 100% | 76.1 | 1014.6 | |||||||
| 04 | 02:56 | Calm | 16.09 | Partly Cloudy | SCT120 | 11.1 | 10.6 | 97% | 76.12 | 1014.9 | |||||||
| 04 | 01:56 | E 6 | 16.09 | Overcast | OVC015 | 11.7 | 11.1 | 96% | 76.12 | 1015.1 | |||||||
| 04 | 00:56 | SE 6 | 16.09 | Overcast | BKN011 OVC018 | 11.7 | 11.1 | 96% | 76.17 | 1015.7 | |||||||
| Date | Time (pdt) | Wind (kph) | Vis. (km) | Weather | Sky Cond. | Air | Dwpt | Max. | Min. | Relative Humidity | Wind Chill (°C) | Heat Index (°C) | altimeter (cm) | sea level (mb) | 1 hr | 3 hr | 6 hr |
| 6 hour | |||||||||||||||||
| Temperature (ºC) | Pressure | Precipitation (cm) | |||||||||||||||